This is the latest recevied weather packets stored in our database for station/object F4ETJ-1. If no packets are shown the sender has not sent any weather packets the latest 10 day(s).
| Time | Temp. | Humidity | Pressure | Rain* | Wind** | Luminosity | Snow |
|---|---|---|---|---|---|---|---|
| 1787907545 | 19.44° C | 81% | 1012.4 hPa | 0 mm | - | - | - |
| 1787907183 | 19.44° C | 82% | 1012.4 hPa | 0 mm | - | - | - |
| 1787906823 | 18.89° C | 83% | 1012.4 hPa | 0 mm | - | - | - |
| 1787906462 | 19.44° C | 85% | 1012.4 hPa | 0 mm | - | - | - |
| 1787906102 | 18.89° C | 86% | 1012.3 hPa | 0 mm | - | - | - |
| 1787905742 | 18.33° C | 87% | 1012.2 hPa | 0.51 mm | - | - | - |
| 1787905381 | 18.33° C | 89% | 1012.2 hPa | 0.51 mm | - | - | - |
| 1787905021 | 18.33° C | 90% | 1012.1 hPa | 1.27 mm | - | - | - |
| 1787904660 | 17.78° C | 90% | 1012 hPa | 1.78 mm | - | - | - |
| 1787904300 | 17.78° C | 90% | 1012 hPa | 1.78 mm | - | - | - |
| 1787903940 | 17.78° C | 90% | 1011.9 hPa | 1.78 mm | - | - | - |
| 1787903579 | 17.78° C | 90% | 1011.8 hPa | 1.78 mm | - | - | - |
| 1787903219 | 17.78° C | 90% | 1011.8 hPa | 1.78 mm | - | - | - |
| 1787902861 | 17.78° C | 91% | 1011.7 hPa | 1.78 mm | - | - | - |
| 1787902498 | 17.22° C | 91% | 1011.6 hPa | 1.78 mm | - | - | - |
| 1787902138 | 17.22° C | 92% | 1011.6 hPa | 1.27 mm | - | - | - |
| 1787901778 | 17.22° C | 91% | 1011.5 hPa | 1.27 mm | - | - | - |
| 1787901417 | 17.22° C | 91% | 1011.4 hPa | 0.51 mm | - | - | - |
| 1787901057 | 17.22° C | 91% | 1011.2 hPa | 0 mm | - | - | - |
| 1787900697 | 17.22° C | 91% | 1011.2 hPa | 0 mm | - | - | - |
| 1787900336 | 16.67° C | 92% | 1011.3 hPa | 0 mm | - | - | - |
| 1787899976 | 16.67° C | 92% | 1011.2 hPa | 0 mm | - | - | - |
| 1787899616 | 16.11° C | 91% | 1011.2 hPa | 0 mm | - | - | - |
| 1787899255 | 16.11° C | 91% | 1011.2 hPa | 0.25 mm | - | - | - |
| 1787898895 | 16.67° C | 91% | 1011.2 hPa | 0.25 mm | - | - | - |
* Rain latest hour (hover to see other rain measurements)
** Current wind speed in m/s (hover to see current wind gust speed)